Notices

What's New in latest Release from April 7th, 2021:

- Updated Glossary, including Speed of Maximum Gust, and Total Hourly Precipitation

- Updated national and regional climate services offices contacts and prices information

- Addition of station inventory lists for 1981-2010, 1971-2000, and 1961-1990 Normals.

If you haven't already, please take our survey and provide feedback about our website: https://eccc.sondage-survey.ca/f/LanguageSelection.aspx?s=442ca660-fcf1-47c0-95a9-59707d6fd709

Hourly Data Report for June 06, 2006

TORONTO CITY
ONTARIO

43°40'00.000" N
79°24'00.000" W
112.50 m
6158355
71508
XTO

Download Data

Hourly Data (June 2006)
Hourly Data Report for June 6, 2006
TIME
LST
Temp Definition
°C
Dew Point Definition
°C
Rel Hum Definition
%
Precip. Amount Definition
mm

Wind Dir Definition
10's deg

Wind Spd Definition
km/h
Visibility Definition
km
Stn Press Definition
kPa
Hmdx Definition


Wind Chill Definition


Weather Definition


00:00 18.8 10.2 57   LegendMM LegendMM   99.93     LegendNANA
01:00 18.2 11.7 66   LegendMM LegendMM   99.96     LegendNANA
02:00 17.6 11.7 68   LegendMM LegendMM   99.94     LegendNANA
03:00 16.6 11.4 71   LegendMM LegendMM   99.97     LegendNANA
04:00 16.8 10.8 68   LegendMM LegendMM   99.99     LegendNANA
05:00 17.9 10.2 61   LegendMM LegendMM   100.04     LegendNANA
06:00 18.7 11.0 61   LegendMM LegendMM   100.07     LegendNANA
07:00 19.7 9.7 52   LegendMM LegendMM   100.11     LegendNANA
08:00 20.0 10.3 54   LegendMM LegendMM   100.12     LegendNANA
09:00 21.7 11.1 51   LegendMM LegendMM   100.11     LegendNANA
10:00 22.5 10.1 45   LegendMM LegendMM   100.11     LegendNANA
11:00 23.0 10.2 44   LegendMM LegendMM   100.09     LegendNANA
12:00 23.9 13.0 50   LegendMM LegendMM   100.08 27   LegendNANA
13:00 20.5 11.6 57   LegendMM LegendMM   100.08     LegendNANA
14:00 22.1 12.5 54   LegendMM LegendMM   100.05 25   LegendNANA
15:00 22.9 11.6 49   LegendMM LegendMM   99.99 25   LegendNANA
16:00 22.3 12.6 54   LegendMM LegendMM   99.98 25   LegendNANA
17:00 22.4 11.6 50   LegendMM LegendMM   99.97     LegendNANA
18:00 22.2 10.9 49   LegendMM LegendMM   99.95     LegendNANA
19:00 21.5 8.4 43   LegendMM LegendMM   99.97     LegendNANA
20:00 20.5 8.5 46   LegendMM LegendMM   99.95     LegendNANA
21:00 20.3 8.2 46   LegendMM LegendMM   99.97     LegendNANA
22:00 19.8 7.9 46   LegendMM LegendMM   99.93     LegendNANA
23:00 18.0 8.7 55   LegendMM LegendMM   99.95     LegendNANA

Notes on Data Quality.

Legend

  • E = Estimated
  • M = Missing
  • NA = Not Available*
  • [empty] = Indicates an unobserved value
Date modified: